| time (UTC) | temp C | wind direction | speed KPH | gust KPH | rain 1hr cm | rain 24hr cm | rain mn cm | humidity % | barometer mb |
| 20260504044546 | 11 | 203 | 0.0 | 0.0 | 0.00 | 0.00 | 0.00 | 56 | 1008.5 |
| 20260504043044 | 11 | 174 | 0.0 | 0.0 | 0.00 | 0.00 | 0.00 | 55 | 1008.6 |
| 20260504041540 | 11 | 199 | 0.0 | 0.0 | 0.00 | 0.00 | 0.00 | 53 | 1008.5 |
| 20260504040038 | 12 | 210 | 0.0 | 0.0 | 0.00 | 0.00 | 0.00 | 52 | 1008.4 |
| 20260504034541 | 12 | 227 | 0.0 | 1.6 | 0.00 | 0.00 | 0.00 | 51 | 1008.4 |
| 20260504033037 | 12 | 144 | 0.0 | 1.6 | 0.00 | 0.00 | 0.00 | 52 | 1008.4 |
| 20260504031535 | 12 | 191 | 0.0 | 0.0 | 0.00 | 0.00 | 0.00 | 52 | 1008.5 |
| 20260504030040 | 12 | 174 | 0.0 | 0.0 | 0.00 | 0.00 | 0.00 | 51 | 1008.6 |
| 20260504024533 | 12 | 153 | 0.0 | 1.6 | 0.00 | 0.00 | 0.00 | 51 | 1008.6 |
| 20260504023034 | 12 | 174 | 0.0 | 0.0 | 0.00 | 0.00 | 0.00 | 53 | 1008.7 |
| 20260504021534 | 12 | 215 | 0.0 | 4.8 | 0.00 | 0.00 | 0.00 | 54 | 1008.9 |
| 20260504020035 | 11 | 179 | 0.0 | 0.0 | 0.00 | 0.00 | 0.00 | 55 | 1008.9 |
| 20260504014536 | 11 | 135 | 0.0 | 1.6 | 0.00 | 0.00 | 0.00 | 58 | 1008.9 |
| 20260504013034 | 11 | 162 | 0.0 | 6.4 | 0.00 | 0.00 | 0.00 | 61 | 1008.9 |
| 20260504011532 | 11 | 212 | 0.0 | 0.0 | 0.00 | 0.00 | 0.00 | 66 | 1009.2 |
| 20260504010030 | 10 | 172 | 0.0 | 0.0 | 0.00 | 0.00 | 0.00 | 67 | 1009.4 |
| 20260504004530 | 10 | 240 | 0.0 | 0.0 | 0.00 | 0.00 | 0.00 | 69 | 1009.3 |
| 20260504003029 | 11 | 352 | 0.0 | 1.6 | 0.00 | 0.00 | 0.00 | 69 | 1009.7 |
| 20260504001529 | 11 | 203 | 0.0 | 1.6 | 0.00 | 0.00 | 0.00 | 67 | 1009.7 |
| 20260504000027 | 11 | 212 | 0.0 | 3.2 | 0.00 | 0.00 | 0.00 | 63 | 1009.6 |
| 20260503234541 | 11 | 181 | 0.0 | 8.0 | 0.00 | 0.00 | 0.00 | 61 | 1009.5 |
| 20260503233026 | 12 | 241 | 0.0 | 6.4 | 0.00 | 0.00 | 0.00 | 57 | 1009.5 |
| 20260503231527 | 12 | 68 | 0.0 | 6.4 | 0.00 | 0.00 | 0.00 | 51 | 1009.3 |
| 20260503230026 | 12 | 217 | 0.0 | 9.7 | 0.00 | 0.00 | 0.00 | 49 | 1009.0 |
| 20260503224524 | 13 | 232 | 0.0 | 6.4 | 0.00 | 0.00 | 0.00 | 46 | 1008.9 |
| 20260503223024 | 13 | 288 | 0.0 | 16.1 | 0.00 | 0.00 | 0.00 | 43 | 1008.8 |
| 20260503221523 | 13 | 196 | 0.0 | 9.7 | 0.00 | 0.00 | 0.00 | 43 | 1008.7 |
| 20260503220038 | 13 | 150 | 0.0 | 0.0 | 0.00 | 0.00 | 0.00 | 44 | 1008.9 |
| 20260503214521 | 13 | 226 | 0.0 | 3.2 | 0.00 | 0.03 | 0.00 | 42 | 1009.1 |
| 20260503213024 | 14 | 204 | 0.0 | 0.0 | 0.00 | 0.03 | 0.00 | 43 | 1009.0 |
| 20260503211520 | 14 | 212 | 0.0 | 3.2 | 0.00 | 0.03 | 0.00 | 42 | 1008.8 |
| 20260503210018 | 14 | 201 | 1.6 | 16.1 | 0.00 | 0.03 | 0.00 | 39 | 1008.8 |
| 20260503204516 | 15 | 218 | 0.0 | 6.4 | 0.00 | 0.05 | 0.00 | 38 | 1008.9 |
| 20260503203026 | 14 | 268 | 0.0 | 9.7 | 0.00 | 0.05 | 0.00 | 39 | 1009.0 |
| 20260503201518 | 14 | 271 | 0.0 | 8.0 | 0.00 | 0.05 | 0.00 | 37 | 1009.3 |
| 20260503200011 | 14 | 102 | 0.0 | 3.2 | 0.00 | 0.05 | 0.00 | 38 | 1009.5 |
| 20260503194509 | 13 | 20 | 0.0 | 12.9 | 0.00 | 0.05 | 0.00 | 36 | 1009.8 |
| 20260503193008 | 14 | 219 | 0.0 | 11.3 | 0.00 | 0.05 | 0.00 | 37 | 1010.2 |
| 20260503191512 | 13 | 178 | 0.0 | 14.5 | 0.00 | 0.05 | 0.00 | 36 | 1010.4 |
| 20260503190002 | 13 | 215 | 0.0 | 9.7 | 0.00 | 0.05 | 0.00 | 36 | 1010.7 |
| 20260503184502 | 14 | 228 | 0.0 | 9.7 | 0.00 | 0.05 | 0.00 | 35 | 1011.0 |
| 20260503183110 | 13 | 206 | 0.0 | 16.1 | 0.00 | 0.05 | 0.00 | 36 | 1011.0 |
| 20260503181608 | 13 | 272 | 0.0 | 8.0 | 0.00 | 0.05 | 0.00 | 42 | 1011.2 |
| 20260503180056 | 12 | 220 | 0.0 | 11.3 | 0.00 | 0.05 | 0.00 | 42 | 1011.3 |
| 20260503174554 | 13 | 23 | 0.0 | 9.7 | 0.00 | 0.05 | 0.00 | 41 | 1011.2 |
| 20260503173059 | 13 | 75 | 0.0 | 1.6 | 0.00 | 0.05 | 0.00 | 44 | 1011.5 |
| 20260503171550 | 13 | 256 | 0.0 | 4.8 | 0.00 | 0.05 | 0.00 | 43 | 1011.7 |
| 20260503081545 | 1 | 205 | 0.0 | 0.0 | 0.00 | 0.05 | 0.00 | 88 | 1013.7 |
| 20260503071528 | 2 | 159 | 0.0 | 0.0 | 0.00 | 0.05 | 0.00 | 85 | 1013.7 |
| 20260503054514 | 4 | 193 | 0.0 | 0.0 | 0.00 | 0.05 | 0.00 | 78 | 1014.0 |